Weather Data

Pearl Creek Farm: 8878 N Farm Road 75, Walnut Grove MO 65770

<== Previous Day (Monday 07 Jan 2013) | Next Day (Wednesday 09 Jan 2013) ==>

Summary Precipitation Data For Tuesday 08 January 2013

ElementValueUnits
Precipitation0"
Notes(none)
SourcePearl Creek Farm

Summary Temperature Data For Tuesday 08 January 2013

ElementValueUnits
High Temperature54 oF
Low Temperature27 oF
Average Temperature42 oF
High Humidity90 %
Low Humidity56 %
Average Humidity74 %
SourcePearl Creek Farm

Detail Temperature Data For Tuesday 08 January 2013

Date / TimeTemp (F)RH (%)Dew Pt (F)Report Date / TimeSource
2013-01-08 00:00:00 33 74 25.6 2013-01-27 10:51:56 Pearl Creek Farm
2013-01-08 00:30:00 33 74 25.5 2013-01-27 10:51:56 Pearl Creek Farm
2013-01-08 01:00:00 34 74 26.6 2013-01-27 10:51:56 Pearl Creek Farm
2013-01-08 01:30:00 34 74 26.4 2013-01-27 10:51:56 Pearl Creek Farm
2013-01-08 02:00:00 33 74 25.5 2013-01-27 10:51:56 Pearl Creek Farm
2013-01-08 02:30:00 33 74 25.5 2013-01-27 10:51:56 Pearl Creek Farm
2013-01-08 03:00:00 32 78 25.8 2013-01-27 10:51:56 Pearl Creek Farm
2013-01-08 03:30:00 32 80 26.4 2013-01-27 10:51:56 Pearl Creek Farm
2013-01-08 04:00:00 32 77 25.6 2013-01-27 10:51:56 Pearl Creek Farm
2013-01-08 04:30:00 31 77 24.7 2013-01-27 10:51:56 Pearl Creek Farm
2013-01-08 05:00:00 30 79 24.2 2013-01-27 10:51:56 Pearl Creek Farm
2013-01-08 05:30:00 29 80 23.5 2013-01-27 10:51:56 Pearl Creek Farm
2013-01-08 06:00:00 29 82 24.2 2013-01-27 10:51:56 Pearl Creek Farm
2013-01-08 06:30:00 28 82 23.1 2013-01-27 10:51:56 Pearl Creek Farm
2013-01-08 07:00:00 28 84 23.8 2013-01-27 10:51:56 Pearl Creek Farm
2013-01-08 07:30:00 27 85 23.1 2013-01-27 10:51:56 Pearl Creek Farm
2013-01-08 08:00:00 29 83 24.5 2013-01-27 10:51:56 Pearl Creek Farm
2013-01-08 08:30:00 31 81 25.7 2013-01-27 10:51:56 Pearl Creek Farm
2013-01-08 09:00:00 33 81 27.7 2013-01-27 10:51:56 Pearl Creek Farm
2013-01-08 09:30:00 36 78 29.7 2013-01-27 10:51:56 Pearl Creek Farm
2013-01-08 10:00:00 39 73 31.1 2013-01-27 10:51:56 Pearl Creek Farm
2013-01-08 10:30:00 42 69 32.4 2013-01-27 10:51:56 Pearl Creek Farm
2013-01-08 11:00:00 44 62 31.8 2013-01-27 10:51:56 Pearl Creek Farm
2013-01-08 11:30:00 46 59 32.3 2013-01-27 10:51:56 Pearl Creek Farm
2013-01-08 12:00:00 49 56 33.8 2013-01-27 10:51:56 Pearl Creek Farm
2013-01-08 12:30:00 50 57 35.2 2013-01-27 10:51:56 Pearl Creek Farm
2013-01-08 13:00:00 52 57 37.0 2013-01-27 10:51:56 Pearl Creek Farm
2013-01-08 13:30:00 52 59 37.9 2013-01-27 10:51:56 Pearl Creek Farm
2013-01-08 14:00:00 54 61 40.7 2013-01-27 10:51:56 Pearl Creek Farm
2013-01-08 14:30:00 54 61 40.9 2013-01-27 10:51:56 Pearl Creek Farm
2013-01-08 15:00:00 54 61 40.9 2013-01-27 10:51:56 Pearl Creek Farm
2013-01-08 15:30:00 54 62 41.1 2013-01-27 10:51:56 Pearl Creek Farm
2013-01-08 16:00:00 53 62 40.4 2013-01-27 10:51:56 Pearl Creek Farm
2013-01-08 16:30:00 53 63 40.8 2013-01-27 10:51:56 Pearl Creek Farm
2013-01-08 17:00:00 52 64 40.0 2013-01-27 10:51:56 Pearl Creek Farm
2013-01-08 17:30:00 51 64 39.3 2013-01-27 10:51:56 Pearl Creek Farm
2013-01-08 18:00:00 50 65 38.5 2013-01-27 10:51:56 Pearl Creek Farm
2013-01-08 18:30:00 50 66 38.9 2013-01-27 10:51:56 Pearl Creek Farm
2013-01-08 19:00:00 50 67 39.5 2013-01-27 10:51:56 Pearl Creek Farm
2013-01-08 19:30:00 49 79 42.6 2013-01-27 10:51:56 Pearl Creek Farm
2013-01-08 20:00:00 48 82 42.6 2013-01-27 10:51:56 Pearl Creek Farm
2013-01-08 20:30:00 47 86 42.9 2013-01-27 10:51:56 Pearl Creek Farm
2013-01-08 21:00:00 47 88 43.5 2013-01-27 10:51:56 Pearl Creek Farm
2013-01-08 21:30:00 47 89 43.8 2013-01-27 10:51:56 Pearl Creek Farm
2013-01-08 22:00:00 47 88 43.6 2013-01-27 10:51:56 Pearl Creek Farm
2013-01-08 22:30:00 47 90 44.2 2013-01-27 10:51:56 Pearl Creek Farm
2013-01-08 23:00:00 47 89 43.9 2013-01-27 10:51:56 Pearl Creek Farm
2013-01-08 23:30:00 48 90 45.1 2013-01-27 10:51:56 Pearl Creek Farm

A total of 48 rows are displayed.